Date String (YYYY-MM-DD hh:mm:ss) UTC,Instrument flags,absolute air pressure of the measurement (hPa),sample flow rate (lpm),inlet stack bypass flow (lpm),air temperature of the measurement (°C),ambient temperature measured by the external sensor (°C),aerosol sample conditioner tube jacket temperature (°C),OPC LED temperature (°C),internal box temperature (°C),relative humidity of the measurement (%),span deviation,mass concentration of particles derived from Lorenz-Mie calculation of OPC scattering (μg/m³),mass concentration of particles derived from Lorenz-Mie calculation of OPC scattering (μg/m³),mass concentration of particles derived from Lorenz-Mie calculation of OPC scattering (μg/m³)
DateTimeUTC,F1_M11,P_M11,Q1_M11,Q2_M11,T1_M11,T2_M11,T3_M11,T4_M11,T5_M11,U1_M11,ZSPAN_M11,X2_M11,X0_M11,X1_M11
2023-07-31 01:00:00,SystemResetWarning,0833.9,5.01,000.00,028.7,024.9,000.0,036.9,030.0,25.1,0000.0,0003.44,0007.13,0003.07
2023-07-31 01:01:00,SystemResetWarning,0834.0,5.01,000.00,028.6,025.0,000.0,036.8,029.9,25.1,0000.0,0003.42,0007.59,0003.06
2023-07-31 01:02:00,SystemResetWarning,0834.0,5.00,000.00,028.6,025.4,000.0,036.9,029.9,25.1,0000.0,0003.39,0007.61,0003.06
2023-07-31 01:03:00,SystemResetWarning,0833.9,5.00,000.00,028.6,025.9,000.0,036.9,030.0,25.0,0000.0,0003.37,0007.47,0003.05
2023-07-31 01:04:00,SystemResetWarning,0834.0,5.00,000.00,028.6,026.3,000.0,036.9,030.2,24.7,0000.0,0003.36,0007.42,0003.02
2023-07-31 01:05:00,SystemResetWarning,0834.0,5.01,000.00,028.7,026.7,000.0,037.0,030.3,25.0,0000.0,0003.35,0007.45,0003.01
2023-07-31 01:06:00,SystemResetWarning,0834.0,4.99,000.00,028.7,027.1,000.0,037.0,030.4,24.9,0000.0,0003.33,0007.41,0003.00
2023-07-31 01:07:00,SystemResetWarning,0834.0,4.99,000.00,028.8,026.9,000.0,037.0,030.4,24.7,0000.0,0003.31,0007.30,0002.99
2023-07-31 01:08:00,SystemResetWarning,0834.0,5.00,000.00,028.7,025.5,000.0,036.9,030.2,24.5,0000.0,0003.27,0007.24,0002.97
2023-07-31 01:09:00,SystemResetWarning,0834.0,5.01,000.00,028.6,024.7,000.0,036.8,030.0,24.7,0000.0,0003.27,0007.12,0002.96
2023-07-31 01:10:00,SystemResetWarning,0834.0,5.01,000.00,028.6,024.8,000.0,036.8,029.9,24.3,0000.0,0003.27,0006.92,0002.96
2023-07-31 01:11:00,SystemResetWarning,0833.9,4.99,000.00,028.5,025.2,000.0,036.8,029.8,24.5,0000.0,0003.26,0006.49,0002.96
2023-07-31 01:12:00,SystemResetWarning,0834.0,4.99,000.00,028.5,025.7,000.0,036.8,030.0,24.6,0000.0,0003.25,0005.80,0002.96
2023-07-31 01:13:00,SystemResetWarning,0834.0,5.00,000.00,028.5,026.2,000.0,036.9,030.1,24.5,0000.0,0003.26,0005.36,0002.97
2023-07-31 01:14:00,SystemResetWarning,0834.0,5.01,000.00,028.6,026.6,000.0,036.9,030.2,24.5,0000.0,0003.27,0005.42,0002.97
2023-07-31 01:15:00,SystemResetWarning,0834.1,5.02,000.00,028.6,027.0,000.0,036.9,030.3,24.6,0000.0,0003.27,0005.41,0002.97
2023-07-31 01:16:00,SystemResetWarning,0834.1,4.98,000.00,028.7,027.3,000.0,037.0,030.4,24.6,0000.0,0003.31,0005.51,0002.96
2023-07-31 01:17:00,SystemResetWarning,0834.1,5.00,000.00,028.7,027.2,000.0,036.9,030.4,24.5,0000.0,0003.30,0005.71,0002.93
2023-07-31 01:18:00,SystemResetWarning,0834.1,5.00,000.00,028.7,025.7,000.0,036.9,030.2,24.5,0000.0,0003.33,0005.96,0002.94
2023-07-31 01:19:00,SystemResetWarning,0834.1,5.02,000.00,028.6,024.7,000.0,036.8,030.0,24.1,0000.0,0003.38,0006.10,0002.96
2023-07-31 01:20:00,SystemResetWarning,0834.1,5.00,000.00,028.6,024.8,000.0,036.8,029.9,24.6,0000.0,0003.39,0006.18,0002.97
2023-07-31 01:21:00,SystemResetWarning,0834.0,5.00,000.00,028.5,025.2,000.0,036.8,029.8,24.8,0000.0,0003.38,0005.85,0002.96
2023-07-31 01:22:00,SystemResetWarning,0834.1,5.00,000.00,028.5,025.6,000.0,036.8,030.0,24.2,0000.0,0003.36,0005.26,0002.95
2023-07-31 01:23:00,SystemResetWarning,0834.0,5.00,000.00,028.5,026.1,000.0,036.9,030.1,24.1,0000.0,0003.38,0005.52,0002.94
2023-07-31 01:24:00,SystemResetWarning,0834.0,5.00,000.00,028.6,026.6,000.0,036.9,030.2,23.9,0000.0,0003.36,0005.54,0002.92
2023-07-31 01:25:00,SystemResetWarning,0834.1,5.00,000.00,028.6,027.0,000.0,036.9,030.3,24.0,0000.0,0003.36,0005.59,0002.92
2023-07-31 01:26:00,SystemResetWarning,0834.0,5.00,000.00,028.7,027.3,000.0,036.9,030.4,23.9,0000.0,0003.36,0005.59,0002.93
2023-07-31 01:27:00,SystemResetWarning,0834.0,4.99,000.00,028.7,026.6,000.0,036.9,030.3,23.8,0000.0,0003.36,0005.53,0002.95
2023-07-31 01:28:00,SystemResetWarning,0834.0,5.00,000.00,028.6,025.1,000.0,036.8,030.1,24.0,0000.0,0003.35,0005.41,0002.97
2023-07-31 01:29:00,SystemResetWarning,0834.0,5.01,000.00,028.5,024.6,000.0,036.7,029.9,24.1,0000.0,0003.33,0005.35,0002.95
2023-07-31 01:30:00,SystemResetWarning,0834.0,5.01,000.00,028.5,024.8,000.0,036.7,029.8,24.2,0000.0,0003.31,0005.42,0002.93
2023-07-31 01:31:00,SystemResetWarning,0834.0,5.00,000.00,028.4,025.2,000.0,036.8,029.8,24.1,0000.0,0003.28,0005.44,0002.90
2023-07-31 01:32:00,SystemResetWarning,0834.1,5.00,000.00,028.4,025.8,000.0,036.8,029.9,24.0,0000.0,0003.26,0006.37,0002.89
2023-07-31 01:33:00,SystemResetWarning,0834.1,5.00,000.00,028.5,026.2,000.0,036.8,030.1,24.0,0000.0,0003.27,0006.40,0002.90
2023-07-31 01:34:00,SystemResetWarning,0834.1,4.99,000.00,028.5,026.7,000.0,036.8,030.2,24.0,0000.0,0003.28,0006.34,0002.90
2023-07-31 01:35:00,SystemResetWarning,0834.1,5.00,000.00,028.6,027.0,000.0,036.9,030.3,23.9,0000.0,0003.30,0006.36,0002.90
2023-07-31 01:36:00,SystemResetWarning,0834.1,4.99,000.00,028.6,027.3,000.0,036.9,030.3,24.0,0000.0,0003.29,0006.97,0002.90
2023-07-31 01:37:00,SystemResetWarning,0834.1,5.00,000.00,028.7,027.4,000.0,036.9,030.4,23.6,0000.0,0003.25,0007.47,0002.88
2023-07-31 01:38:00,SystemResetWarning,0834.1,5.00,000.00,028.7,026.2,000.0,036.8,030.3,23.7,0000.0,0003.21,0007.94,0002.86
2023-07-31 01:39:00,SystemResetWarning,0834.0,5.01,000.00,028.6,024.8,000.0,036.7,030.0,23.7,0000.0,0003.20,0008.02,0002.84
2023-07-31 01:40:00,SystemResetWarning,0834.0,5.01,000.00,028.5,024.7,000.0,036.7,029.9,23.8,0000.0,0003.19,0007.97,0002.81
2023-07-31 01:41:00,SystemResetWarning,0834.1,5.00,000.00,028.5,025.0,000.0,036.7,029.8,23.9,0000.0,0003.18,0007.90,0002.80
2023-07-31 01:42:00,SystemResetWarning,0834.1,4.99,000.00,028.4,025.4,000.0,036.8,029.9,24.3,0000.0,0003.16,0007.74,0002.79
2023-07-31 01:43:00,SystemResetWarning,0834.1,5.00,000.00,028.5,025.9,000.0,036.8,030.0,24.2,0000.0,0003.17,0007.12,0002.79
2023-07-31 01:44:00,SystemResetWarning,0834.1,5.01,000.00,028.5,026.4,000.0,036.8,030.1,24.4,0000.0,0003.15,0007.08,0002.78
2023-07-31 01:45:00,SystemResetWarning,0834.1,5.01,000.00,028.5,026.8,000.0,036.8,030.2,24.0,0000.0,0003.14,0007.08,0002.76
2023-07-31 01:46:00,SystemResetWarning,0834.1,4.99,000.00,028.6,027.1,000.0,036.9,030.3,23.4,0000.0,0003.13,0007.13,0002.74
2023-07-31 01:47:00,SystemResetWarning,0834.2,5.00,000.00,028.6,027.4,000.0,036.9,030.4,23.3,0000.0,0003.12,0006.60,0002.72
2023-07-31 01:48:00,SystemResetWarning,0834.2,4.99,000.00,028.7,027.2,000.0,036.9,030.4,23.6,0000.0,0003.12,0005.81,0002.71
2023-07-31 01:49:00,SystemResetWarning,0834.1,5.00,000.00,028.7,025.6,000.0,036.8,030.2,23.7,0000.0,0003.12,0005.08,0002.68
2023-07-31 01:50:00,SystemResetWarning,0834.1,5.01,000.00,028.6,024.6,000.0,036.7,029.9,23.7,0000.0,0003.15,0005.07,0002.68
2023-07-31 01:51:00,SystemResetWarning,0834.1,5.01,000.00,028.5,024.7,000.0,036.7,029.8,24.1,0000.0,0003.15,0004.93,0002.66
2023-07-31 01:52:00,SystemResetWarning,0834.1,5.00,000.00,028.4,025.1,000.0,036.8,029.8,24.3,0000.0,0003.15,0004.98,0002.66
2023-07-31 01:53:00,SystemResetWarning,0834.1,4.99,000.00,028.4,025.6,000.0,036.8,029.9,24.4,0000.0,0003.18,0005.87,0002.67
2023-07-31 01:54:00,SystemResetWarning,0834.1,5.00,000.00,028.5,026.1,000.0,036.8,030.0,24.4,0000.0,0003.21,0006.22,0002.67
2023-07-31 01:55:00,SystemResetWarning,0834.2,5.00,000.00,028.5,026.5,000.0,036.8,030.1,24.7,0000.0,0003.22,0006.41,0002.67
2023-07-31 01:56:00,SystemResetWarning,0834.1,5.01,000.00,028.5,026.9,000.0,036.8,030.2,24.4,0000.0,0003.21,0006.35,0002.66
2023-07-31 01:57:00,SystemResetWarning,0834.1,4.99,000.00,028.6,027.2,000.0,036.9,030.3,23.5,0000.0,0003.20,0006.26,0002.66
2023-07-31 01:58:00,SystemResetWarning,0834.1,4.99,000.00,028.6,027.5,000.0,036.9,030.4,23.6,0000.0,0003.18,0006.18,0002.65
2023-07-31 01:59:00,SystemResetWarning,0834.1,5.00,000.00,028.7,027.5,000.0,036.9,030.5,23.6,0000.0,0003.18,0006.13,0002.66
